Andover, NJ

4:22 PM EDT on August 29, 2016 (GMT -0400)
Andover

Weather History for K12N - April, 2013

Change the Weather History Date:

Thursday, April 11, 2013

  Actual Average (KFWN) Record (KFWN)
Temperature  
Mean Temperature 52 °F -  
Max Temperature 60 °F 54 °F 83 °F (1955)
Min Temperature 39 °F 32 °F 21 °F (2007)
Degree Days  
Heating Degree Days 14    
Growing Degree Days 2 (Base 50)    
Moisture  
Dew Point 45 °F    
Average Humidity 76    
Maximum Humidity 96    
Minimum Humidity 55    
Precipitation  
Precipitation 0.01 in - - ()
Sea Level Pressure  
Sea Level Pressure 29.93 in    
Wind  
Wind Speed 3 mph (NNE)    
Max Wind Speed 10 mph    
Max Gust Speed 18 mph    
Averages and records for this station are not official NWS values.
T = Trace of Precipitation, MM = Missing Value Source: NWS Daily Summary

Daily Weather History Graph

Daily Weather History Graph

Search for Another Location

Airport or City:

Trip Planner

Search our weather history database for the weather conditions in past years. The results will help you decide how hot, cold, wet, or windy it might be!

Date:

Astronomy

Apr. 11, 2013 Rise Set
Actual Time 6:25 AM EDT 7:34 PM EDT
Civil Twilight 5:57 AM EDT 8:03 PM EDT
Nautical Twilight 5:23 AM EDT 8:36 PM EDT
Astronomical Twilight 4:48 AM EDT 9:12 PM EDT
Moon 6:55 AM EDT (4/11) 9:07 PM EDT (4/11)
Length of Visible Light 14h 05m
Length of Day
13h 09m
New Moon, 2% of the Moon is Illuminated
Apr 11
New Moon
Apr 18
First Quarter
Apr 25
Full
May 2
Last Quarter
May 9
New

Hourly Weather History & Observations

Time (EDT) Temp. Windchill Dew Point Humidity Pressure Visibility Wind Dir Wind Speed Gust Speed Precip Events Conditions
12:54 AM 60.1 °F - 57.9 °F 93% 29.85 in - Calm Calm - N/A   Unknown
1:54 AM 59.0 °F - 57.9 °F 96% 29.80 in - Calm Calm - 0.01 in   Unknown
2:54 AM 57.0 °F - 55.9 °F 96% 29.81 in - Calm Calm - N/A   Unknown
3:54 AM 57.9 °F - 55.9 °F 93% 29.82 in - North 6.9 mph - N/A   Unknown
4:54 AM 55.9 °F - 52.0 °F 87% 29.84 in - North 3.5 mph - N/A   Unknown
5:54 AM 55.0 °F - 52.0 °F 89% 29.89 in - Calm Calm - N/A   Unknown
6:54 AM 52.0 °F - 50.0 °F 93% 29.92 in - NNE 4.6 mph - N/A   Unknown
7:54 AM 52.0 °F - 48.9 °F 89% 29.92 in - Calm Calm - N/A   Unknown
8:54 AM 51.1 °F - 46.9 °F 86% 29.95 in - Calm Calm - N/A   Unknown
9:54 AM 50.0 °F - 46.0 °F 86% 29.96 in - NE 9.2 mph - N/A   Unknown
10:54 AM 52.0 °F - 45.0 °F 77% 29.96 in - NNE 4.6 mph - N/A   Unknown
11:54 AM 57.0 °F - 46.9 °F 69% 29.96 in - Variable 3.5 mph - N/A   Unknown
12:54 PM 59.0 °F - 46.9 °F 64% 29.96 in - NE 6.9 mph - N/A   Unknown
1:54 PM 57.9 °F - 46.0 °F 65% 29.95 in - Variable 5.8 mph - N/A   Unknown
2:54 PM 57.0 °F - 43.0 °F 59% 29.95 in - Variable 6.9 mph - N/A   Unknown
3:54 PM 55.0 °F - 39.0 °F 55% 29.93 in - NNE 8.1 mph - N/A   Unknown
4:54 PM 54.0 °F - 37.9 °F 55% 29.94 in - NNE 9.2 mph 18.4 mph N/A   Unknown
5:54 PM 52.0 °F - 37.0 °F 57% 29.96 in - NE 8.1 mph - N/A   Unknown
6:54 PM 51.1 °F - 36.0 °F 56% 29.96 in - NE 10.4 mph - N/A   Unknown
7:54 PM 48.9 °F - 35.1 °F 59% 29.99 in - NNE 4.6 mph - N/A   Unknown
8:54 PM 46.9 °F - 36.0 °F 66% 30.01 in - Variable 5.8 mph - N/A   Unknown
9:54 PM 46.0 °F 43.1 °F 33.1 °F 61% 30.03 in - NE 5.8 mph - N/A   Unknown
10:54 PM 43.0 °F 38.8 °F 35.1 °F 74% 30.03 in - Variable 6.9 mph - N/A   Unknown
11:54 PM 39.9 °F 33.9 °F 37.0 °F 89% 30.02 in - NNE 9.2 mph - N/A   Unknown